Regional Weather Roundup
Issued by NWS State College, PA

Home | Current Version | Previous Version | Graphics & Text | Print | Product List | Glossary Off
Versions: 1 2 3 4 5 6 7 8 9 10 11 12 13 14 15 16 17 18 19 20 21 22 23 24 25 26 27 28 29 30 31 32 33 34 35 36 37 38 39 40 41 42 43 44 45 46 47 48 49 50

000
ASUS41 KCTP 032203
RWRCTP

REGIONAL WEATHER ROUNDUP
NATIONAL WEATHER SERVICE STATE COLLEGE PA
500 PM EST SAT DEC 03 2016

Note: "fair" indicates few or no clouds below 12,000 feet with no
significant weather and/or obstructions to visibility.

* = STATION THAT DOES NOT REPORT PRECIPITATION /E.G. RAIN...SNOW...ETC/
    THUNDER OR FOG.

PAZ002>004-007>009-013>016-020>023-029>032-032300-
WESTERN PENNSYLVANIA

CITY           SKY/WX    TMP DP  RH WIND       PRES   REMARKS
ERIE           CLOUDY    42  34  73 W12       30.25F
MEADVILLE      LGT RAIN  35  31  85 W12       30.25R
FRANKLIN*        N/A     36  28  75 W5        30.25S
NEW CASTLE     CLOUDY    37  32  82 W9        30.29S
BEAVER COUNTY  CLOUDY    36  30  80 W6        30.28S
BUTLER*        CLOUDY    36  28  75 SW8       30.30S
PITTSBURGH INT CLOUDY    38  29  70 W6        30.28S
PITTSBURGH       N/A     36  27  69 W8        30.28S
INDIANA*       CLOUDY    36  32  87 W10G17    30.28R
LATROBE        CLOUDY    36  28  75 W9        30.29F
WASHINGTON CO* CLOUDY    36  27  69 W7        30.30S
$$

PAZ004>006-010>012-017>019-024>028-033>037-041-042-045-046-049>053-032300-
CENTRAL PENNSYLVANIA

CITY           SKY/WX    TMP DP  RH WIND       PRES   REMARKS
BRADFORD       CLOUDY    34  32  92 NW13      30.16R
DUBOIS         CLOUDY    36  31  82 W8        30.20R
CLEARFIELD     LGT RAIN  37  33  85 W12       30.21R
JOHNSTOWN      CLOUDY    32  28  85 W14       30.20S
ALTOONA        CLOUDY    38  29  70 NW8G22    30.22S
STATE COLLEGE  CLOUDY    39  30  70 W15       30.20R
WILLIAMSPORT   CLOUDY    43  32  65 NW7       30.17R
SELINSGROVE    CLOUDY    43  35  73 W8G18     30.19R
FT INDIANTOWN  CLOUDY    44  31  59 W10       30.17
CAPITAL CITY   CLOUDY    47  28  47 NW12      30.19S
HARRISBURG     MOCLDY    45  33  63 W9        30.19R
YORK           CLOUDY    44  30  57 W9        30.19S
$$

PAZ038>040-043-044-047-048-054-055-060>062-067>071-032300-
EASTERN PENNSYLVANIA

CITY           SKY/WX    TMP DP  RH WIND       PRES   REMARKS
SCRANTON       CLOUDY    41  28  60 NW10G17   30.13S
MOUNT POCONO   MOCLDY    35  25  66 NW17G25   30.06S
ALLENTOWN      CLOUDY    45  27  49 NW13      30.15R
QUAKERTOWN*    CLOUDY    45  27  49 N7        30.15R
READING        CLOUDY    45  32  60 W10       30.16R
LANCASTER      CLOUDY    45  33  63 W14G23    30.18R
COATESVILLE    CLOUDY    45  32  61 NW12      30.16S
POTTSTOWN      CLOUDY    45  29  53 NW10      30.17R
BLUE BELL      CLOUDY    45  28  53 NW5       30.14S
DOYLESTOWN     CLOUDY    46  27  47 NW14G28   30.13R
WILLOW GROVE   NOT AVBL
NORTH PHILA    CLOUDY    48  27  44 NW12G26   30.15R
PHILADELPHIA   CLOUDY    48  31  51 NW12      30.16R
$$



USA.gov is the U.S. government's official web portal to all federal, state and local government web resources and services.